FW7729 Weather Reports


Display with metric or nautical units.
time (UTC)temp
F
wind
direction
speed
MPH
gust
MPH
rain 1hr
in
rain 24hr
in
rain mn
in
humidity
%
barometer
mb
20260905085357 70 273 0.0 0.0 0.00 0.01 0.00 10 1010.0
20260905084823 70 273 0.0 0.0 0.00 0.01 0.00 10 1010.1
20260905084249 70 273 0.0 0.0 0.00 0.01 0.00 10 1009.9
20260905083715 70 273 0.0 0.0 0.00 0.01 0.00 10 1010.0
20260905083141 70 273 0.0 0.0 0.00 0.02 0.00 10 1010.0
20260905080407 70 273 0.0 0.0 0.00 0.02 0.00 10 1010.1
20260905075833 70 274 0.0 0.0 0.00 0.02 0.00 10 1010.3
20260905074728 70 273 0.0 0.0 0.00 0.02 0.00 10 1010.4
20260905074154 70 273 0.0 0.0 0.00 0.02 0.00 10 1010.3
20260905073050 71 273 0.0 0.0 0.00 0.02 0.00 10 1010.4
20260905071946 71 273 0.0 0.0 0.00 0.02 0.00 10 1010.4
20260905071412 71 273 0.0 0.0 0.00 0.02 0.00 10 1010.4
20260905070838 71 273 0.0 0.0 0.00 0.02 0.00 10 1010.5
20260905070303 71 273 0.0 0.0 0.00 0.02 0.00 10 1010.4
20260905065729 71 273 0.0 0.0 0.00 0.02 0.00 10 1010.5
20260905064625 71 273 0.0 0.0 0.00 0.02 0.00 10 1010.6
20260905063521 71 273 0.0 0.0 0.00 0.02 0.00 10 1010.9
20260905061847 71 273 0.0 0.0 0.00 0.02 0.00 10 1011.2
20260905061313 71 273 0.0 0.0 0.00 0.02 0.00 10 1011.4
20260905060209 71 273 0.0 0.0 0.00 0.02 0.00 10 1011.5
20260905055105 71 273 0.0 0.0 0.00 0.02 0.00 10 1011.5
20260905054530 71 273 0.0 0.0 0.00 0.02 0.00 10 1011.6
20260905053956 71 273 0.0 0.0 0.00 0.02 0.00 10 1011.6
20260905053422 71 273 0.0 0.0 0.00 0.02 0.00 10 1011.8
20260905052848 71 273 0.0 0.0 0.00 0.07 0.00 10 1011.7
20260905052315 71 273 0.0 0.0 0.00 0.07 0.00 10 1011.8
20260905051210 71 273 0.0 0.0 0.00 0.07 0.00 10 1011.8
20260905050636 71 273 0.0 0.0 0.00 0.07 0.00 10 1011.9
20260905045528 72 273 0.0 0.0 0.00 0.07 0.00 10 1012.0
20260905044954 72 274 0.0 0.0 0.00 0.07 0.00 10 1012.0
20260905044420 72 273 0.0 0.0 0.00 0.07 0.00 10 1012.0
20260905043846 72 273 0.0 0.0 0.00 0.07 0.00 10 1012.0
20260905042742 72 273 0.0 0.0 0.00 0.72 0.07 10 1012.1
20260905042208 72 273 0.0 0.0 0.00 0.72 0.07 10 1012.1
20260905040004 72 273 0.0 0.0 0.00 0.72 0.07 10 1012.2
20260905035430 72 274 0.0 0.0 0.00 0.72 0.07 10 1012.3
20260905034856 72 359 0.0 0.0 0.00 0.72 0.07 10 1012.2
20260905034322 72 273 0.0 0.0 0.00 0.72 0.07 10 1012.3
20260905033748 72 273 0.0 0.0 0.00 0.72 0.07 10 1012.3
20260905032643 72 274 0.0 0.0 0.00 0.90 0.07 10 1012.4
20260905032109 72 274 0.0 0.0 0.00 0.90 0.07 10 1012.3
20260905031535 72 273 0.0 0.0 0.00 0.90 0.07 10 1012.4
20260905031002 72 273 0.0 0.0 0.00 0.90 0.07 10 1012.4
20260905030427 72 273 0.0 0.0 0.00 0.90 0.07 10 1012.4
20260905025853 72 274 0.0 0.0 0.00 0.90 0.07 10 1012.3
20260905024749 72 273 0.0 0.0 0.00 0.90 0.07 10 1012.4
20260905024215 72 273 0.0 0.0 0.00 0.90 0.07 10 1012.3
20260905023640 72 274 0.0 0.0 0.00 0.90 0.07 10 1012.4
20260905022536 72 273 0.0 0.0 0.00 0.90 0.07 10 1012.4
20260905022002 72 273 0.0 0.0 0.00 0.90 0.07 10 1012.2
20260905020858 72 273 0.0 0.0 0.00 0.90 0.07 10 1012.0
20260905020324 72 273 0.0 0.0 0.00 0.90 0.07 10 1011.7
20260905015750 72 273 0.0 0.0 0.00 0.90 0.07 10 1011.9
20260905015216 72 272 0.0 0.0 0.00 0.90 0.07 10 1011.9
20260905013012 72 274 0.0 0.0 0.00 0.90 0.07 10 1011.8
20260905012438 73 273 0.0 0.0 0.00 0.90 0.07 10 1011.7
20260905011904 73 273 0.0 0.0 0.00 0.90 0.07 10 1011.5
20260905011330 73 276 0.0 0.0 0.00 0.90 0.07 10 1011.4
20260905010225 73 276 0.0 0.0 0.00 0.90 0.07 10 1011.2
20260905005121 73 276 0.0 0.0 0.00 0.90 0.07 10 1011.2
20260905004547 73 276 0.0 0.0 0.00 0.90 0.07 10 1011.2
20260905004013 73 276 0.0 0.0 0.00 0.90 0.07 10 1011.3
20260905002339 73 275 0.0 0.0 0.00 0.90 0.07 10 1011.3
20260905001805 74 276 0.0 0.0 0.00 0.90 0.07 10 1011.2
20260905001230 74 276 0.0 0.0 0.00 0.90 0.07 10 1011.2
20260904235556 74 276 0.0 0.0 0.00 0.90 0.07 10 1011.3
20260904235022 74 276 0.0 0.0 0.00 0.90 0.07 10 1011.3
20260904234448 74 276 0.0 0.0 0.00 0.90 0.07 10 1011.3
20260904233344 74 276 0.0 0.0 0.00 0.90 0.07 10 1011.5
20260904231710 74 276 0.0 0.0 0.00 0.90 0.07 10 1011.3
20260904231136 74 276 0.0 0.0 0.00 0.90 0.07 10 1011.5
20260904230602 75 276 0.0 0.0 0.00 0.90 0.07 10 1011.4
20260904230028 75 276 0.0 0.0 0.00 0.90 0.07 10 1011.5
20260904225454 75 276 0.0 0.0 0.00 0.90 0.07 10 1011.3
20260904223819 74 276 0.0 0.0 0.00 0.90 0.07 10 1010.8
20260904222715 74 276 0.0 0.0 0.00 0.90 0.07 10 1011.1
20260904222141 74 276 0.0 0.0 0.00 0.90 0.07 10 1011.5
20260904221607 74 276 0.0 0.0 0.00 0.90 0.07 10 1011.5
20260904220503 74 276 0.0 0.0 0.00 0.90 0.07 10 1011.8
20260904215929 74 276 0.0 0.0 0.00 0.90 0.07 10 1011.9
20260904215355 74 276 0.0 0.0 0.01 0.90 0.07 10 1011.9
20260904214821 74 276 0.0 0.0 0.01 0.90 0.07 10 1011.9
20260904214247 74 276 0.0 0.0 0.01 0.90 0.07 10 1011.9
20260904213713 74 276 0.0 0.0 0.01 0.90 0.07 10 1011.9
20260904213139 74 276 0.0 0.0 0.01 0.90 0.07 10 1011.8
20260904212035 74 276 0.0 0.0 0.01 0.90 0.07 10 1011.8
20260904211501 75 276 0.0 0.0 0.01 0.90 0.07 10 1011.9
20260904210357 76 276 0.0 0.0 0.01 0.90 0.07 10 1012.0
20260904205252 78 278 1.0 0.0 0.00 0.89 0.06 96 1012.4
20260904204718 80 220 2.0 0.0 0.00 0.89 0.06 92 1012.5
20260904203610 83 70 0.0 0.0 0.00 0.89 0.06 89 1012.1
20260904203036 84 70 0.0 0.0 0.00 0.89 0.06 89 1011.9
20260904201928 85 69 0.0 0.0 0.00 0.89 0.06 86 1012.0
20260904200824 86 120 0.0 0.0 0.00 0.89 0.06 86 1011.9
20260904194616 86 112 0.0 0.0 0.00 0.89 0.06 85 1011.5
20260904194042 86 112 0.0 0.0 0.00 0.89 0.06 83 1011.5
20260904192938 86 112 0.0 0.0 0.00 0.89 0.06 81 1011.6
20260904192404 87 104 0.0 0.0 0.00 0.89 0.06 81 1011.6
20260904191829 87 104 0.0 0.0 0.00 0.89 0.06 82 1011.7
20260904191255 86 104 0.0 0.0 0.00 0.89 0.06 79 1011.7
20260904190721 87 214 0.0 0.0 0.00 0.89 0.06 81 1011.6
20260904190147 86 214 0.0 0.0 0.00 0.89 0.06 82 1011.7
20260904185613 86 214 0.0 0.0 0.00 0.89 0.06 81 1011.9
20260904184509 86 214 1.0 0.0 0.00 0.89 0.06 82 1012.2
20260904182835 85 216 0.0 0.0 0.00 0.89 0.06 81 1012.5
20260904181731 86 261 1.0 0.0 0.00 0.89 0.06 81 1012.6
20260904180627 86 79 1.0 0.0 0.00 0.89 0.06 80 1012.7
20260904180053 86 74 1.0 0.0 0.00 0.89 0.06 79 1012.8
20260904174415 86 100 0.0 0.0 0.00 0.89 0.06 77 1012.8
20260904172740 86 33 1.0 0.0 0.00 0.89 0.06 76 1013.1
20260904172206 86 132 0.0 0.0 0.00 0.89 0.06 78 1013.2
20260904171102 85 302 1.0 0.0 0.00 0.89 0.06 79 1013.3
20260904170528 85 303 1.0 0.0 0.00 0.89 0.06 80 1013.2
20260904165424 84 285 1.0 0.0 0.00 0.89 0.06 81 1013.2
20260904164850 84 283 1.0 0.0 0.00 0.89 0.06 80 1013.4
20260904164316 84 285 0.0 0.0 0.00 0.89 0.06 83 1013.3
20260904161542 83 320 0.0 0.0 0.00 0.89 0.06 85 1013.7
20260904155907 82 89 1.0 0.0 0.00 0.89 0.06 87 1013.7
20260904155333 82 354 0.0 0.0 0.00 0.89 0.06 87 1013.7
20260904154759 82 359 1.0 0.0 0.00 0.89 0.06 86 1013.7
20260904153655 81 95 0.0 0.0 0.00 0.89 0.06 89 1013.7
20260904152551 81 97 1.0 0.0 0.00 0.89 0.06 90 1013.7
20260904151443 80 68 0.0 0.0 0.00 0.89 0.06 94 1013.9
20260904150339 79 326 0.0 0.0 0.00 0.89 0.06 97 1013.9
20260904145235 78 339 1.0 0.0 0.00 0.89 0.06 98 1014.1
20260904144700 77 339 1.0 0.0 0.00 0.89 0.06 99 1014.2
20260904143026 75 239 1.0 0.0 0.00 0.89 0.06 10 1014.0
20260904141922 74 231 0.0 0.0 0.00 0.89 0.06 10 1014.0
20260904141348 74 198 0.0 0.0 0.00 0.89 0.06 10 1013.9
20260904140814 74 170 0.0 0.0 0.00 0.89 0.06 10 1014.0
20260904140240 73 170 0.0 0.0 0.00 0.89 0.06 10 1014.1
20260904135132 73 169 0.0 0.0 0.00 0.89 0.06 10 1014.1
20260904134558 73 170 0.0 0.0 0.00 0.89 0.06 10 1014.1
20260904132924 72 170 0.0 0.0 0.00 0.89 0.06 10 1014.1
20260904132350 72 170 0.0 0.0 0.00 0.89 0.06 10 1013.8
20260904131246 71 170 0.0 0.0 0.00 0.89 0.06 10 1013.9
20260904130712 71 169 0.0 0.0 0.00 0.89 0.06 10 1014.1
20260904130138 71 170 0.0 0.0 0.00 0.89 0.06 10 1014.3
20260904125604 71 170 0.0 0.0 0.00 0.89 0.06 10 1014.3
20260904125030 71 170 0.0 0.0 0.00 0.89 0.06 10 1014.3
20260904123926 71 170 0.0 0.0 0.00 0.89 0.06 10 1014.3
20260904122252 70 170 0.0 0.0 0.00 0.89 0.06 10 1013.9
20260904121718 70 169 0.0 0.0 0.00 0.89 0.06 10 1013.8
20260904121143 70 170 0.0 0.0 0.00 0.89 0.06 10 1013.8
20260904115509 70 170 0.0 0.0 0.00 0.89 0.06 10 1014.1
20260904114935 69 170 0.0 0.0 0.00 0.89 0.06 10 1014.1
20260904113831 69 169 0.0 0.0 0.00 0.89 0.06 10 1014.0
20260904113257 69 170 0.0 0.0 0.00 0.89 0.06 10 1013.9
20260904112723 69 170 0.0 0.0 0.00 0.89 0.06 10 1013.8
20260904112149 69 169 0.0 0.0 0.00 0.89 0.06 10 1013.8
20260904111615 69 161 0.0 0.0 0.00 0.89 0.06 10 1013.9
20260904104310 69 160 0.0 0.0 0.00 0.89 0.06 10 1013.8
20260904103737 69 160 0.0 0.0 0.00 0.89 0.06 10 1013.8
20260904103202 69 160 0.0 0.0 0.00 0.89 0.06 10 1013.8
20260904102628 69 160 0.0 0.0 0.00 0.89 0.06 10 1013.6
20260904102053 69 160 0.0 0.0 0.00 0.89 0.06 10 1013.3
20260904101519 69 160 0.0 0.0 0.00 0.89 0.06 10 1013.1
20260904100415 69 237 0.0 0.0 0.00 0.89 0.06 10 1013.4
20260904095841 69 237 0.0 0.0 0.00 0.89 0.06 10 1013.0
20260904095307 69 359 0.0 0.0 0.00 0.89 0.06 10 1012.6
20260904094733 69 236 0.0 0.0 0.00 0.89 0.06 10 1012.5
20260904094159 69 237 0.0 0.0 0.00 0.89 0.06 10 1012.5
20260904093625 69 237 0.0 0.0 0.00 0.89 0.06 10 1012.5
20260904092521 69 236 0.0 0.0 0.00 0.89 0.06 10 1012.4
20260904091416 69 237 0.0 0.0 0.00 0.89 0.06 10 1012.2
20260904090312 69 236 0.0 0.0 0.00 0.89 0.06 10 1012.5
20260904085738 69 359 0.0 0.0 0.00 0.89 0.06 10 1012.5